BER50V EDDM-EDDV

Flight info

Callsign BER50V
Flight time 0h 45m
Altitude 30000
Route INPUD2N INPUD Y102 UPALA M726 LASTO M852 BIRKA/N0430F240 T803 GITEX GITEX4R
Aircraft A320/M-SDE3FGHIRWY/LB1

Departure

Time 2026-05-07 18:52
Airport Munich Airport (EDDM)

Arrival

Time 2026-05-07 19:37
Airport Hannover Airport (EDDV)
Time Latitude Longitude Altitude Speed Heading
2026-05-07 18:23 48.35737 11.77603 1466 ft 0 kts 263°
2026-05-07 18:31 48.35738 11.77618 1457 ft 2 kts 263°
2026-05-07 18:32 48.35740 11.77643 1462 ft 2 kts 261°
2026-05-07 18:32 48.35744 11.77668 1463 ft 2 kts 272°
2026-05-07 18:32 48.35743 11.77693 1456 ft 2 kts 302°
2026-05-07 18:32 48.35734 11.77706 1459 ft 0 kts 355°
2026-05-07 18:36 48.35736 11.77706 1460 ft 2 kts 356°
2026-05-07 18:36 48.35764 11.77745 1458 ft 6 kts 64°
2026-05-07 18:36 48.35781 11.77812 1458 ft 9 kts 65°
2026-05-07 18:36 48.35833 11.77856 1464 ft 9 kts 360°
2026-05-07 18:37 48.35869 11.77851 1464 ft 0 kts 354°
2026-05-07 18:38 48.35875 11.77850 1462 ft 5 kts 354°
2026-05-07 18:38 48.35909 11.77844 1460 ft 4 kts 353°
2026-05-07 18:38 48.35944 11.77840 1462 ft 9 kts
2026-05-07 18:39 48.35987 11.77943 1467 ft 18 kts 84°
2026-05-07 18:39 48.36003 11.78159 1467 ft 22 kts 82°
2026-05-07 18:39 48.36024 11.78401 1461 ft 24 kts 84°
2026-05-07 18:39 48.36042 11.78659 1467 ft 26 kts 83°
2026-05-07 18:40 48.36063 11.78931 1463 ft 27 kts 83°
2026-05-07 18:40 48.36080 11.79142 1465 ft 10 kts 84°
2026-05-07 18:40 48.36081 11.79159 1468 ft 0 kts 84°
2026-05-07 18:41 48.36083 11.79190 1468 ft 10 kts 84°
2026-05-07 18:41 48.36107 11.79284 1465 ft 9 kts 40°
2026-05-07 18:41 48.36169 11.79310 1468 ft 9 kts 14°
2026-05-07 18:42 48.36210 11.79377 1465 ft 11 kts 75°
2026-05-07 18:42 48.36228 11.79606 1468 ft 29 kts 83°
2026-05-07 18:42 48.36247 11.79877 1468 ft 25 kts 86°
2026-05-07 18:42 48.36268 11.80143 1463 ft 26 kts 83°
2026-05-07 18:43 48.36288 11.80425 1468 ft 28 kts 83°
2026-05-07 18:43 48.36311 11.80719 1463 ft 29 kts 83°
2026-05-07 18:43 48.36329 11.80964 1467 ft 8 kts 84°
2026-05-07 18:43 48.36336 11.81044 1467 ft 7 kts 83°
2026-05-07 18:44 48.36342 11.81124 1465 ft 13 kts 83°
2026-05-07 18:44 48.36358 11.81335 1464 ft 23 kts 83°
2026-05-07 18:44 48.36378 11.81583 1459 ft 25 kts 83°
2026-05-07 18:44 48.36393 11.81792 1464 ft 16 kts 84°
2026-05-07 18:45 48.36396 11.81967 1466 ft 18 kts 91°
2026-05-07 18:45 48.36397 11.82048 1466 ft 4 kts 88°
2026-05-07 18:45 48.36402 11.82113 1466 ft 7 kts 73°
2026-05-07 18:45 48.36442 11.82144 1466 ft 6 kts
2026-05-07 18:46 48.36481 11.82138 1466 ft 5 kts 353°
2026-05-07 18:46 48.36513 11.82132 1461 ft 4 kts 353°
2026-05-07 18:46 48.36537 11.82127 1466 ft 3 kts 353°
2026-05-07 18:46 48.36552 11.82124 1463 ft 0 kts 352°
2026-05-07 18:51 48.36580 11.82119 1461 ft 10 kts 352°
2026-05-07 18:51 48.36637 11.82071 1464 ft 10 kts 311°
2026-05-07 18:51 48.36669 11.81882 1467 ft 35 kts 266°
2026-05-07 18:51 48.36614 11.81131 1467 ft 108 kts 263°
2026-05-07 18:52 48.36508 11.79698 1465 ft 165 kts 264°
2026-05-07 18:52 48.36388 11.77984 2153 ft 162 kts 266°
2026-05-07 18:52 48.36272 11.76311 2931 ft 161 kts 265°
2026-05-07 18:52 48.36147 11.74606 3539 ft 171 kts 264°
2026-05-07 18:53 48.36005 11.72711 3879 ft 194 kts 264°
2026-05-07 18:53 48.35842 11.70574 4221 ft 218 kts 264°
2026-05-07 18:53 48.35753 11.68232 4900 ft 229 kts 279°
2026-05-07 18:53 48.36477 11.66152 5708 ft 237 kts 316°
2026-05-07 18:54 48.37990 11.64891 6201 ft 262 kts 340°
2026-05-07 18:54 48.39802 11.64228 6824 ft 274 kts 347°
2026-05-07 18:54 48.41689 11.63781 7039 ft 275 kts 350°
2026-05-07 18:54 48.43610 11.63366 7752 ft 279 kts 346°
2026-05-07 18:55 48.45463 11.62515 8646 ft 285 kts 338°
2026-05-07 18:55 48.47412 11.61501 9053 ft 308 kts 338°
2026-05-07 18:55 48.49517 11.60395 9452 ft 330 kts 337°
2026-05-07 18:55 48.51722 11.59236 10153 ft 340 kts 337°
2026-05-07 18:56 48.53971 11.58058 10927 ft 345 kts 337°
2026-05-07 18:56 48.56279 11.56848 11404 ft 360 kts 338°
2026-05-07 18:56 48.58730 11.55995 11989 ft 372 kts 348°
2026-05-07 18:56 48.61308 11.55431 12720 ft 376 kts 348°
2026-05-07 18:57 48.63914 11.54857 13470 ft 381 kts 348°
2026-05-07 18:57 48.66550 11.54279 14163 ft 385 kts 349°
2026-05-07 18:57 48.69210 11.53699 14833 ft 388 kts 348°
2026-05-07 18:57 48.71890 11.53115 15512 ft 391 kts 348°
2026-05-07 18:58 48.74589 11.52525 16212 ft 393 kts 348°
2026-05-07 18:58 48.77304 11.51928 16903 ft 396 kts 348°
2026-05-07 18:58 48.80038 11.51323 17580 ft 399 kts 348°
2026-05-07 18:58 48.82793 11.50712 18245 ft 402 kts 348°
2026-05-07 18:59 48.85531 11.50108 18808 ft 405 kts 348°
2026-05-07 18:59 48.88322 11.49495 19347 ft 407 kts 348°
2026-05-07 18:59 48.91143 11.48876 19881 ft 410 kts 348°
2026-05-07 18:59 48.93977 11.48253 20400 ft 413 kts 348°
2026-05-07 19:00 48.96831 11.47624 20896 ft 417 kts 349°
2026-05-07 19:00 48.99715 11.46993 21365 ft 420 kts 349°
2026-05-07 19:00 49.02617 11.46347 21839 ft 423 kts 348°
2026-05-07 19:00 49.05496 11.45598 22290 ft 425 kts 347°
2026-05-07 19:01 49.08405 11.44747 22725 ft 427 kts 346°
2026-05-07 19:01 49.11329 11.43841 23157 ft 430 kts 346°
2026-05-07 19:01 49.14224 11.42926 23564 ft 432 kts 346°
2026-05-07 19:01 49.17177 11.42000 23928 ft 435 kts 346°
2026-05-07 19:02 49.20150 11.41087 24282 ft 437 kts 346°
2026-05-07 19:02 49.23150 11.40180 24629 ft 440 kts 347°
2026-05-07 19:02 49.26158 11.39279 24965 ft 442 kts 347°
2026-05-07 19:02 49.29181 11.38380 25300 ft 443 kts 347°
2026-05-07 19:03 49.32219 11.37483 25627 ft 445 kts 347°
2026-05-07 19:03 49.35264 11.36582 25939 ft 446 kts 347°
2026-05-07 19:03 49.38288 11.35681 26084 ft 444 kts 347°
2026-05-07 19:03 49.41329 11.34765 26291 ft 447 kts 347°
2026-05-07 19:04 49.44350 11.33850 26564 ft 449 kts 347°
2026-05-07 19:04 49.47422 11.32920 26848 ft 451 kts 347°
2026-05-07 19:04 49.50508 11.31983 27124 ft 453 kts 347°
2026-05-07 19:04 49.53604 11.31042 27364 ft 454 kts 347°
2026-05-07 19:05 49.56703 11.30100 27592 ft 455 kts 347°
2026-05-07 19:05 49.59817 11.29154 27794 ft 457 kts 347°
2026-05-07 19:05 49.62946 11.28205 27961 ft 459 kts 347°
2026-05-07 19:05 49.66075 11.27256 28242 ft 459 kts 347°
2026-05-07 19:06 49.69162 11.26321 28489 ft 455 kts 347°
2026-05-07 19:06 49.75430 11.24416 29015 ft 456 kts 347°
2026-05-07 19:06 49.78495 11.23475 29307 ft 455 kts 347°
2026-05-07 19:07 49.81597 11.22522 29615 ft 454 kts 347°
2026-05-07 19:07 49.84698 11.21573 29926 ft 453 kts 347°
2026-05-07 19:07 49.87791 11.20624 30064 ft 453 kts 347°
2026-05-07 19:07 49.90883 11.19676 30069 ft 452 kts 348°
2026-05-07 19:08 49.97058 11.17777 30067 ft 453 kts 348°
2026-05-07 19:08 50.03235 11.15875 30070 ft 453 kts 348°
2026-05-07 19:09 50.09371 11.13979 30073 ft 452 kts 348°
2026-05-07 19:09 50.15535 11.12069 30075 ft 451 kts 348°
2026-05-07 19:10 50.21676 11.10157 30075 ft 448 kts 348°
2026-05-07 19:10 50.27791 11.08354 30049 ft 447 kts 348°
2026-05-07 19:11 50.33936 11.07131 30046 ft 450 kts 354°
2026-05-07 19:11 50.40188 11.06303 30054 ft 452 kts 355°
2026-05-07 19:12 50.46466 11.05519 30057 ft 453 kts 355°
2026-05-07 19:12 50.52749 11.04702 30060 ft 454 kts 354°
2026-05-07 19:13 50.59046 11.03860 30073 ft 454 kts 354°
2026-05-07 19:13 50.65305 11.03019 30079 ft 455 kts 354°
2026-05-07 19:14 50.71611 11.02172 30091 ft 459 kts 355°
2026-05-07 19:14 50.74795 11.01745 29963 ft 457 kts 355°
2026-05-07 19:14 50.77960 11.01324 29668 ft 456 kts 354°
2026-05-07 19:15 50.81128 11.00903 29387 ft 456 kts 354°
2026-05-07 19:15 50.84278 11.00483 28694 ft 452 kts 354°
2026-05-07 19:15 50.87418 11.00059 27963 ft 454 kts 354°
2026-05-07 19:15 50.90575 10.99629 27700 ft 457 kts 354°
2026-05-07 19:16 50.93752 10.99196 27432 ft 459 kts 354°
2026-05-07 19:16 50.96943 10.98762 27136 ft 461 kts 354°
2026-05-07 19:16 51.00140 10.98328 26719 ft 461 kts 354°
2026-05-07 19:16 51.03336 10.97892 26303 ft 462 kts 354°
2026-05-07 19:17 51.06505 10.97462 25908 ft 463 kts 354°
2026-05-07 19:17 51.09718 10.97025 25500 ft 464 kts 354°
2026-05-07 19:17 51.12932 10.96590 25115 ft 465 kts 354°
2026-05-07 19:17 51.16168 10.96152 24725 ft 468 kts 354°
2026-05-07 19:18 51.19424 10.95707 24333 ft 471 kts 354°
2026-05-07 19:18 51.22690 10.95257 23961 ft 471 kts 354°
2026-05-07 19:18 51.25954 10.94807 23573 ft 470 kts 354°
2026-05-07 19:18 51.29203 10.94362 23129 ft 467 kts 354°
2026-05-07 19:19 51.32434 10.93921 22693 ft 464 kts 354°
2026-05-07 19:19 51.35639 10.93451 22267 ft 461 kts 351°
2026-05-07 19:19 51.38743 10.92315 22058 ft 456 kts 339°
2026-05-07 19:19 51.41567 10.90056 22109 ft 455 kts 325°
2026-05-07 19:20 51.43977 10.86802 22109 ft 453 kts 315°
2026-05-07 19:20 51.46213 10.83334 22105 ft 453 kts 315°
2026-05-07 19:20 51.48464 10.79792 22104 ft 453 kts 314°
2026-05-07 19:20 51.50706 10.76225 22116 ft 454 kts 314°
2026-05-07 19:21 51.52942 10.72648 22107 ft 454 kts 314°
2026-05-07 19:21 51.55176 10.69072 22107 ft 454 kts 314°
2026-05-07 19:21 51.57411 10.65497 22109 ft 454 kts 314°
2026-05-07 19:21 51.59648 10.61929 22106 ft 453 kts 314°
2026-05-07 19:22 51.61889 10.58357 22108 ft 453 kts 314°
2026-05-07 19:22 51.64132 10.54783 22054 ft 454 kts 314°
2026-05-07 19:22 51.66371 10.51209 21782 ft 452 kts 314°
2026-05-07 19:22 51.68569 10.47692 21527 ft 450 kts 314°
2026-05-07 19:23 51.70783 10.44140 21264 ft 449 kts 314°
2026-05-07 19:23 51.72988 10.40589 21015 ft 447 kts 314°
2026-05-07 19:23 51.75186 10.37045 20748 ft 446 kts 314°
2026-05-07 19:23 51.77374 10.33515 20493 ft 444 kts 314°
2026-05-07 19:24 51.79553 10.29993 20245 ft 443 kts 314°
2026-05-07 19:24 51.81725 10.26486 19904 ft 439 kts 314°
2026-05-07 19:24 51.83878 10.23011 18985 ft 436 kts 314°
2026-05-07 19:24 51.85986 10.19601 18133 ft 433 kts 314°
2026-05-07 19:25 51.88101 10.16170 17286 ft 428 kts 314°
2026-05-07 19:25 51.90181 10.12785 16507 ft 422 kts 314°
2026-05-07 19:25 51.92239 10.09433 15751 ft 417 kts 314°
2026-05-07 19:25 51.94274 10.06113 15024 ft 412 kts 314°
2026-05-07 19:26 51.96280 10.02836 14321 ft 408 kts 314°
2026-05-07 19:26 51.98269 9.99583 13599 ft 404 kts 315°
2026-05-07 19:26 52.00234 9.96369 12912 ft 398 kts 315°
2026-05-07 19:26 52.02136 9.93257 12258 ft 392 kts 315°
2026-05-07 19:27 52.04048 9.90123 11598 ft 386 kts 315°
2026-05-07 19:27 52.05898 9.87083 11366 ft 369 kts 315°
2026-05-07 19:27 52.07654 9.84190 11243 ft 351 kts 314°
2026-05-07 19:27 52.09344 9.81401 10932 ft 344 kts 314°
2026-05-07 19:28 52.11023 9.78628 10693 ft 344 kts 315°
2026-05-07 19:28 52.12700 9.75857 10450 ft 344 kts 314°
2026-05-07 19:28 52.14379 9.73078 10209 ft 344 kts 314°
2026-05-07 19:28 52.15996 9.70400 10015 ft 343 kts 315°
2026-05-07 19:29 52.17669 9.67628 9884 ft 343 kts 315°
2026-05-07 19:29 52.19309 9.64912 9538 ft 338 kts 315°
2026-05-07 19:29 52.20957 9.62183 8948 ft 341 kts 315°
2026-05-07 19:29 52.22626 9.59411 8519 ft 339 kts 315°
2026-05-07 19:30 52.24257 9.56700 7981 ft 333 kts 315°
2026-05-07 19:30 52.25935 9.54126 7381 ft 327 kts 322°
2026-05-07 19:30 52.27712 9.51883 6387 ft 321 kts 324°
2026-05-07 19:30 52.29486 9.49698 5309 ft 318 kts 324°
2026-05-07 19:31 52.31234 9.47502 4430 ft 312 kts 324°
2026-05-07 19:31 52.32880 9.45404 4125 ft 287 kts 324°
2026-05-07 19:31 52.34379 9.43476 4011 ft 261 kts 325°
2026-05-07 19:31 52.35855 9.42197 3899 ft 232 kts 347°
2026-05-07 19:32 52.37423 9.41635 3317 ft 230 kts 353°
2026-05-07 19:32 52.38962 9.41207 3071 ft 217 kts 354°
2026-05-07 19:32 52.40389 9.40790 2929 ft 200 kts 354°
2026-05-07 19:32 52.41725 9.40366 2775 ft 202 kts 354°
2026-05-07 19:33 52.43242 9.40381 2683 ft 232 kts 20°
2026-05-07 19:33 52.44537 9.41702 2580 ft 213 kts 53°
2026-05-07 19:33 52.45318 9.43678 2465 ft 201 kts 63°
2026-05-07 19:33 52.45951 9.45615 2332 ft 192 kts 64°
2026-05-07 19:34 52.46553 9.47492 2204 ft 185 kts 64°
2026-05-07 19:34 52.47089 9.49315 2087 ft 172 kts 74°
2026-05-07 19:34 52.47195 9.51201 1889 ft 161 kts 92°
2026-05-07 19:34 52.47149 9.52957 1693 ft 146 kts 92°
2026-05-07 19:35 52.47108 9.54535 1495 ft 134 kts 93°
2026-05-07 19:35 52.47068 9.56042 1350 ft 130 kts 93°
2026-05-07 19:35 52.47030 9.57516 1170 ft 129 kts 93°
2026-05-07 19:35 52.46991 9.58990 984 ft 130 kts 94°
2026-05-07 19:36 52.46949 9.60525 803 ft 138 kts 94°
2026-05-07 19:36 52.46910 9.62069 590 ft 137 kts 93°
2026-05-07 19:36 52.46865 9.63596 409 ft 131 kts 90°
2026-05-07 19:36 52.46829 9.65095 257 ft 132 kts 93°
2026-05-07 19:37 52.46787 9.66533 183 ft 110 kts 92°
2026-05-07 19:37 52.46764 9.67490 177 ft 59 kts 92°
2026-05-07 19:37 52.46751 9.67944 180 ft 26 kts 101°
2026-05-07 19:37 52.46703 9.68078 181 ft 10 kts 134°
2026-05-07 19:38 52.46641 9.68163 178 ft 13 kts 141°
2026-05-07 19:38 52.46565 9.68259 179 ft 14 kts 144°
2026-05-07 19:38 52.46489 9.68354 179 ft 16 kts 142°
2026-05-07 19:38 52.46370 9.68504 181 ft 23 kts 142°
2026-05-07 19:39 52.46234 9.68675 177 ft 26 kts 142°
2026-05-07 19:39 52.46084 9.68867 178 ft 29 kts 142°
2026-05-07 19:39 52.45918 9.69071 178 ft 30 kts 143°
2026-05-07 19:39 52.45809 9.69206 178 ft 30 kts 142°
2026-05-07 19:40 52.45701 9.69521 180 ft 24 kts 118°
2026-05-07 19:40 52.45675 9.69791 182 ft 15 kts 94°
2026-05-07 19:40 52.45677 9.69813 182 ft 4 kts 70°
2026-05-07 19:40 52.45687 9.69810 182 ft 1 kts 309°
2026-05-07 19:41 52.45688 9.69768 181 ft 6 kts 270°
2026-05-07 19:41 52.45704 9.69714 180 ft 6 kts 327°
2026-05-07 19:41 52.45731 9.69701 180 ft 0 kts 349°